Fosston, MN

8:28 AM CST on February 12, 2016 (GMT -0600)
Fosston Municipal

Weather History for KFSE - March, 2013

Change the Weather History Date:

Saturday, March 30, 2013

  Actual Average Record
Temperature  
Mean Temperature 35 °F -  
Max Temperature 42 °F 43 °F 74 °F (1967)
Min Temperature 28 °F 22 °F -15 °F (1975)
Degree Days  
Heating Degree Days 30    
Moisture  
Dew Point 28 °F    
Average Humidity 81    
Maximum Humidity 100    
Minimum Humidity 57    
Precipitation  
Precipitation 0.01 in - - ()
Sea Level Pressure  
Sea Level Pressure 29.91 in    
Wind  
Wind Speed 2 mph (West)    
Max Wind Speed 10 mph    
Max Gust Speed -    
Visibility 5 miles    
Events Fog , Thunderstorm    
Averages and records for this station are not official NWS values.
T = Trace of Precipitation, MM = Missing Value Source: NWS Daily Summary

Daily Weather History Graph

Daily Weather History Graph

Search for Another Location

Airport or City:

Trip Planner

Search our weather history database for the weather conditions in past years. The results will help you decide how hot, cold, wet, or windy it might be!

Date:

Astronomy

Mar. 30, 2013 Rise Set
Actual Time 7:05 AM CDT 7:50 PM CDT
Civil Twilight 6:34 AM CDT 8:21 PM CDT
Nautical Twilight 5:57 AM CDT 8:58 PM CDT
Astronomical Twilight 5:18 AM CDT 9:37 PM CDT
Moon No Moon Rise 8:45 AM CDT (3/30)
Length of Visible Light 13h 47m
Length of Day
12h 45m
Waning Gibbous, 86% of the Moon is Illuminated
Mar 30
Waning Gibbous
Apr 2
Last Quarter
Apr 10
New
Apr 18
First Quarter
Apr 25
Full

Hourly Weather History & Observations

Time (CDT) Temp. Windchill Dew Point Humidity Pressure Visibility Wind Dir Wind Speed Gust Speed Precip Events Conditions
12:15 AM 30.2 °F - 26.6 °F 86% 29.98 in 5.0 mi Calm Calm - N/A   Overcast
12:35 AM 30.2 °F - 26.6 °F 86% 29.98 in 3.0 mi Calm Calm - 0.01 in   Overcast
1:15 AM 32.0 °F - 28.4 °F 87% 29.97 in 3.0 mi Calm Calm - N/A Thunderstorm Overcast
1:35 AM 30.2 °F - 28.4 °F 93% 29.97 in 2.5 mi Calm Calm - 0.01 in   Overcast
1:55 AM 30.2 °F - 28.4 °F 93% 29.95 in 2.5 mi Calm Calm - 0.01 in   Overcast
2:15 AM 32.0 °F - 28.4 °F 87% 29.94 in 2.0 mi Calm Calm - N/A Thunderstorm Overcast
2:35 AM 32.0 °F - 28.4 °F 87% 29.93 in 2.5 mi Calm Calm - N/A   Unknown
2:55 AM 33.8 °F - 28.4 °F 81% 29.91 in 3.0 mi Calm Calm - N/A   Overcast
3:15 AM 32.0 °F - 28.4 °F 87% 29.91 in 4.0 mi Calm Calm - N/A   Mist
3:35 AM 32.0 °F - 28.4 °F 87% 29.90 in 3.0 mi Calm Calm - N/A   Mist
3:55 AM 32.0 °F - 28.4 °F 87% 29.90 in 3.0 mi Calm Calm - N/A   Overcast
4:15 AM 30.2 °F - 28.4 °F 93% 29.90 in 2.5 mi Calm Calm - N/A   Scattered Clouds
4:35 AM 30.2 °F - 28.4 °F 93% 29.90 in 2.5 mi Calm Calm - N/A   Mostly Cloudy
4:55 AM 30.2 °F - 28.4 °F 93% 29.90 in 2.5 mi Calm Calm - N/A   Overcast
5:15 AM 30.2 °F - 28.4 °F 93% 29.90 in 3.0 mi Calm Calm - N/A   Overcast
5:35 AM 30.2 °F - 28.4 °F 93% 29.90 in 2.5 mi Calm Calm - N/A   Scattered Clouds
5:55 AM 28.4 °F - 26.6 °F 93% 29.90 in 2.5 mi Calm Calm - N/A   Scattered Clouds
6:15 AM 28.4 °F - 28.4 °F 100% 29.90 in 2.0 mi Calm Calm - N/A   Overcast
6:35 AM 30.2 °F - 28.4 °F 93% 29.90 in 2.0 mi Calm Calm - N/A   Overcast
6:55 AM 30.2 °F - 28.4 °F 93% 29.90 in 2.5 mi Calm Calm - N/A   Overcast
7:15 AM 30.2 °F - 28.4 °F 93% 29.90 in 1.8 mi Calm Calm - N/A   Overcast
7:35 AM 30.2 °F - 28.4 °F 93% 29.90 in 1.2 mi Calm Calm - N/A   Overcast
7:55 AM 30.2 °F 25.4 °F 28.4 °F 93% 29.91 in 1.2 mi West 4.6 mph - N/A   Overcast
8:15 AM 28.4 °F 21.2 °F 28.4 °F 100% 29.91 in 1.8 mi WNW 6.9 mph - N/A   Mostly Cloudy
8:35 AM 30.2 °F 23.4 °F 28.4 °F 93% 29.91 in 0.2 mi WNW 6.9 mph - N/A Fog Light Freezing Fog
8:55 AM 28.4 °F 20.4 °F 28.4 °F 100% 29.91 in 0.2 mi WNW 8.1 mph - N/A Fog Light Freezing Fog
9:15 AM 30.2 °F - 28.4 °F 93% 29.92 in 0.2 mi Calm Calm - N/A Fog Light Freezing Fog
9:35 AM 30.2 °F - 28.4 °F 93% 29.92 in 0.2 mi Calm Calm - N/A Fog Light Freezing Fog
9:55 AM 33.8 °F - 28.4 °F 81% 29.92 in 0.8 mi Calm Calm - N/A   Haze
10:15 AM 35.6 °F - 28.4 °F 75% 29.92 in 0.2 mi Calm Calm - N/A   Haze
10:35 AM 37.4 °F 34.9 °F 28.4 °F 70% 29.92 in 0.2 mi SW 3.5 mph - N/A   Haze
10:55 AM 35.6 °F - 30.2 °F 81% 29.92 in 0.2 mi Calm Calm - N/A   Haze
11:15 AM 35.6 °F - 30.2 °F 81% 29.92 in 0.2 mi Calm Calm - N/A   Haze
11:35 AM 37.4 °F - 30.2 °F 75% 29.91 in 0.5 mi Calm Calm - N/A   Haze
11:55 AM 37.4 °F 32.1 °F 28.4 °F 70% 29.91 in 0.2 mi South 6.9 mph - N/A   Haze
12:15 PM 35.6 °F 29.9 °F 30.2 °F 81% 29.92 in 0.2 mi SSW 6.9 mph - N/A   Haze
12:35 PM 35.6 °F 29.9 °F 30.2 °F 81% 29.93 in 0.2 mi SW 6.9 mph - N/A   Haze
12:55 PM 35.6 °F 29.2 °F 32.0 °F 87% 29.92 in 0.2 mi SW 8.1 mph - N/A Fog Fog
1:15 PM 37.4 °F 32.8 °F 30.2 °F 75% 29.93 in 2.5 mi SW 5.8 mph - N/A   Haze
1:35 PM 41.0 °F - 28.4 °F 61% 29.92 in 7.0 mi Calm Calm - N/A   Clear
1:55 PM 41.0 °F 35.2 °F 28.4 °F 61% 29.92 in 7.0 mi WNW 9.2 mph - N/A   Clear
2:15 PM 41.0 °F 35.2 °F 28.4 °F 61% 29.92 in 7.0 mi West 9.2 mph - N/A   Mostly Cloudy
2:35 PM 41.0 °F 35.8 °F 28.4 °F 61% 29.92 in 7.0 mi West 8.1 mph - N/A   Mostly Cloudy
2:55 PM 42.8 °F 38.0 °F 28.4 °F 57% 29.92 in 10.0 mi West 8.1 mph - N/A   Clear
3:15 PM 42.8 °F 38.6 °F 28.4 °F 57% 29.91 in 10.0 mi West 6.9 mph - N/A   Clear
3:35 PM 42.8 °F 37.5 °F 28.4 °F 57% 29.92 in 10.0 mi West 9.2 mph - N/A   Clear
3:55 PM 42.8 °F 41.1 °F 28.4 °F 57% 29.91 in 10.0 mi West 3.5 mph - N/A   Clear
4:15 PM 42.8 °F 38.6 °F 28.4 °F 57% 29.92 in 7.0 mi West 6.9 mph - N/A   Clear
4:35 PM 41.0 °F 34.7 °F 28.4 °F 61% 29.91 in 7.0 mi West 10.4 mph - N/A   Clear
4:55 PM 39.2 °F 33.6 °F 28.4 °F 65% 29.91 in 10.0 mi West 8.1 mph - N/A   Clear
5:15 PM 39.2 °F 34.2 °F 28.4 °F 65% 29.91 in 10.0 mi West 6.9 mph - N/A   Clear
5:35 PM 39.2 °F 33.6 °F 28.4 °F 65% 29.90 in 10.0 mi West 8.1 mph - N/A   Clear
5:55 PM 37.4 °F 31.4 °F 28.4 °F 70% 29.90 in 10.0 mi West 8.1 mph - N/A   Clear
6:15 PM 37.4 °F 32.1 °F 28.4 °F 70% 29.90 in 10.0 mi West 6.9 mph - N/A   Clear
6:35 PM 37.4 °F 32.8 °F 26.6 °F 65% 29.89 in 10.0 mi West 5.8 mph - N/A   Clear
6:55 PM 35.6 °F 31.7 °F 26.6 °F 70% 29.90 in 10.0 mi WNW 4.6 mph - N/A   Clear
7:15 PM 33.8 °F 28.6 °F 26.6 °F 75% 29.90 in 10.0 mi West 5.8 mph - N/A   Clear
7:35 PM 30.2 °F 25.4 °F 26.6 °F 86% 29.89 in 10.0 mi West 4.6 mph - N/A   Clear
7:55 PM 30.2 °F - 26.6 °F 86% 29.89 in 10.0 mi Calm Calm - N/A   Mostly Cloudy
8:15 PM 30.2 °F 23.4 °F 26.6 °F 86% 29.89 in 10.0 mi West 6.9 mph - N/A   Overcast
8:35 PM 30.2 °F 24.3 °F 26.6 °F 86% 29.89 in 10.0 mi West 5.8 mph - N/A   Overcast
8:55 PM 30.2 °F 24.3 °F 26.6 °F 86% 29.89 in 10.0 mi West 5.8 mph - N/A   Overcast
9:15 PM 28.4 °F 23.3 °F 26.6 °F 93% 29.89 in 10.0 mi West 4.6 mph - N/A   Overcast
9:35 PM 30.2 °F 24.3 °F 26.6 °F 86% 29.89 in 10.0 mi WSW 5.8 mph - N/A   Overcast
9:55 PM 30.2 °F 25.4 °F 26.6 °F 86% 29.88 in 10.0 mi West 4.6 mph - N/A   Overcast
10:15 PM 30.2 °F 23.4 °F 26.6 °F 86% 29.88 in 10.0 mi WSW 6.9 mph - N/A   Overcast
10:35 PM 30.2 °F 25.4 °F 26.6 °F 86% 29.87 in 10.0 mi WSW 4.6 mph - N/A   Overcast
10:55 PM 30.2 °F - 26.6 °F 86% 29.87 in 10.0 mi Calm Calm - N/A   Overcast
11:15 PM 30.2 °F - 24.8 °F 80% 29.86 in 10.0 mi Calm Calm - N/A   Overcast
11:35 PM 30.2 °F - 26.6 °F 86% 29.86 in 10.0 mi Calm Calm - N/A   Overcast
11:55 PM 30.2 °F - 26.6 °F 86% 29.84 in 10.0 mi Calm Calm - N/A   Overcast